This is the latest recevied weather packets stored in our database for station/object N3EG. If no packets are shown the sender has not sent any weather packets the latest 10 day(s).
| Time | Temp. | Humidity | Pressure | Rain* | Wind** | Luminosity | Snow |
|---|---|---|---|---|---|---|---|
| 1777842603 | 30.56° C | 48% | 1010 hPa | 0 mm | - | - | - |
| 1777842303 | 30.56° C | 40% | 1010.1 hPa | 0 mm | - | - | - |
| 1777842002 | 30.56° C | 41% | 1010.1 hPa | 0 mm | - | - | - |
| 1777841703 | 30° C | 47% | 1010.1 hPa | 0 mm | - | - | - |
| 1777841402 | 30° C | 40% | 1010.2 hPa | 0 mm | - | - | - |
| 1777841102 | 30° C | 46% | 1010.3 hPa | 0 mm | - | - | - |
| 1777840803 | 30° C | 46% | 1010.4 hPa | 0 mm | - | - | - |
| 1777840503 | 30° C | 48% | 1010.6 hPa | 0 mm | - | - | - |
| 1777840202 | 30° C | 47% | 1010.6 hPa | 0 mm | - | - | - |
| 1777839903 | 29.44° C | 46% | 1010.6 hPa | 0 mm | - | - | - |
| 1777839603 | 29.44° C | 46% | 1010.7 hPa | 0 mm | - | - | - |
| 1777839302 | 29.44° C | 48% | 1010.7 hPa | 0 mm | - | - | - |
| 1777839003 | 29.44° C | 44% | 1011 hPa | 0 mm | - | - | - |
| 1777838703 | 28.89° C | 42% | 1011 hPa | 0 mm | - | - | - |
| 1777838402 | 29.44° C | 44% | 1011.1 hPa | 0 mm | - | - | - |
| 1777838103 | 28.89° C | 47% | 1011.2 hPa | 0 mm | - | - | - |
| 1777837802 | 28.89° C | 45% | 1011.3 hPa | 0 mm | - | - | - |
| 1777837502 | 28.33° C | 48% | 1011.3 hPa | 0 mm | - | - | - |
| 1777837203 | 28.33° C | 45% | 1011.3 hPa | 0 mm | - | - | - |
| 1777836902 | 27.78° C | 51% | 1011.5 hPa | 0 mm | - | - | - |
| 1777836602 | 27.78° C | 47% | 1011.4 hPa | 0 mm | - | - | - |
| 1777836303 | 27.22° C | 45% | 1011.5 hPa | 0 mm | - | - | - |
| 1777836002 | 27.22° C | 48% | 1011.5 hPa | 0 mm | - | - | - |
| 1777835702 | 27.22° C | 47% | 1011.6 hPa | 0 mm | - | - | - |
| 1777835403 | 26.67° C | 47% | 1011.7 hPa | 0 mm | - | - | - |
* Rain latest hour (hover to see other rain measurements)
** Current wind speed in m/s (hover to see current wind gust speed)